Главная страница
METAR-TAF:

METAR-TAF

Аэропорты :

Синт-Эстатиус, Нидерландские Антильские острова

широта: 17-29N, долгота: 062-59W, высота над уровнем моря: 38 м

Текущие метеонаблюдения

Эта сводка был подготовлена 33 минут назад, в 11:55 UTC
Ветер 13 Узел от восточно-северо-восточный, изменяющийся между северо-северо-восточный и восточный
Температура 28°C
Влажность 79%
Давление 1014 hPa

METAR: TNCE 261155Z AUTO 06013KT 030V090 //// // ///////// 28/24 Q1014 RE//

Время: 08:28 (12:28 UTC)


TAF: отсутствует

Метеонаблюдения и прогнозы для более 4000 аэропортов (сводки METAR и TAF).

Имеющиеся станции представлены на карте желтыми и красными точками.

Чтобы увидеть название станции, наведите на нее мышь.

Затем щелкните, чтобы увидеть метеонаблюдения и метеопрогнозы.

Управление картой: чтобы увеличить масштаб, щелкните зеленые кнопки с черным крестиком; чтобы уменьшить масштаб, щелкните зеленую кнопку с тире; для просмотра соседних карт щелкайте зеленые стрелки.


METAR-TAF: